TimeEST,TemperatureF,Dew PointF,Humidity,Sea Level PressureIn,VisibilityMPH,Wind Direction,Wind SpeedMPH,Gust SpeedMPH,PrecipitationIn,Events,Conditions,WindDirDegrees,DateUTC
12:15 AM,10.4,3.2,73,29.96,10.0,West,11.5,16.1,N/A,,Unknown,280,2013-01-22 05:15:00
12:35 AM,10.4,3.2,73,29.96,7.0,WNW,15.0,24.2,N/A,,Unknown,290,2013-01-22 05:35:00
12:55 AM,8.6,3.2,79,29.96,10.0,West,10.4,-,N/A,,Unknown,280,2013-01-22 05:55:00
1:15 AM,8.6,3.2,79,29.96,10.0,West,12.7,-,N/A,,Unknown,280,2013-01-22 06:15:00
1:35 AM,8.6,3.2,79,29.96,10.0,West,10.4,-,N/A,,Unknown,280,2013-01-22 06:35:00
1:55 AM,8.6,6.8,92,29.97,4.0,West,13.8,-,N/A,,Unknown,280,2013-01-22 06:55:00
2:15 AM,8.6,3.2,79,-9999,10.0,WNW,16.1,24.2,N/A,,Unknown,290,2013-01-22 07:15:00
2:55 AM,8.6,1.4,73,30.00,10.0,WNW,12.7,21.9,N/A,,Unknown,290,2013-01-22 07:55:00
3:15 AM,6.8,1.4,79,30.00,10.0,WNW,15.0,23.0,N/A,,Unknown,300,2013-01-22 08:15:00
3:35 AM,6.8,1.4,79,30.00,7.0,West,16.1,23.0,N/A,,Unknown,280,2013-01-22 08:35:00
3:55 AM,6.8,-0.4,72,30.01,10.0,West,11.5,18.4,N/A,,Unknown,280,2013-01-22 08:55:00
4:15 AM,6.8,-0.4,72,30.01,10.0,WNW,13.8,25.3,N/A,,Unknown,290,2013-01-22 09:15:00
4:35 AM,6.8,-0.4,72,30.02,10.0,WNW,12.7,18.4,N/A,,Unknown,290,2013-01-22 09:35:00
4:55 AM,6.8,-2.2,67,30.02,10.0,West,9.2,20.7,N/A,,Unknown,280,2013-01-22 09:55:00
5:15 AM,5.0,-0.4,78,30.02,10.0,West,15.0,20.7,N/A,,Unknown,280,2013-01-22 10:15:00
5:35 AM,5.0,-0.4,78,30.03,10.0,West,8.1,18.4,N/A,,Unknown,280,2013-01-22 10:35:00
5:55 AM,5.0,-0.4,78,30.04,10.0,West,15.0,-,N/A,,Unknown,280,2013-01-22 10:55:00
6:15 AM,5.0,-0.4,78,30.05,10.0,West,11.5,18.4,N/A,,Unknown,280,2013-01-22 11:15:00
6:35 AM,5.0,-0.4,78,30.06,10.0,West,10.4,19.6,N/A,,Unknown,280,2013-01-22 11:35:00
6:55 AM,5.0,-0.4,78,30.07,10.0,West,12.7,18.4,N/A,,Unknown,280,2013-01-22 11:55:00
7:15 AM,5.0,-2.2,72,30.07,10.0,West,11.5,19.6,N/A,,Unknown,280,2013-01-22 12:15:00
7:35 AM,5.0,-0.4,78,30.08,10.0,West,15.0,19.6,N/A,,Unknown,280,2013-01-22 12:35:00
7:55 AM,5.0,-0.4,78,30.08,10.0,West,12.7,18.4,N/A,,Unknown,280,2013-01-22 12:55:00
8:15 AM,5.0,-0.4,78,30.09,10.0,WNW,11.5,16.1,N/A,,Unknown,290,2013-01-22 13:15:00
8:35 AM,5.0,-0.4,78,30.09,10.0,West,11.5,20.7,N/A,,Unknown,280,2013-01-22 13:35:00
8:55 AM,6.8,-0.4,72,30.10,10.0,West,19.6,26.5,N/A,,Unknown,280,2013-01-22 13:55:00
9:15 AM,6.8,-0.4,72,30.10,10.0,West,16.1,-,N/A,,Unknown,270,2013-01-22 14:15:00
9:35 AM,6.8,-0.4,72,30.12,10.0,West,12.7,21.9,N/A,,Unknown,280,2013-01-22 14:35:00
9:55 AM,6.8,-0.4,72,30.12,10.0,WNW,15.0,23.0,N/A,,Unknown,290,2013-01-22 14:55:00
10:35 AM,6.8,-0.4,72,30.13,10.0,West,15.0,24.2,N/A,,Unknown,270,2013-01-22 15:35:00
10:55 AM,8.6,-0.4,67,30.13,10.0,West,15.0,-,N/A,,Unknown,280,2013-01-22 15:55:00
11:15 AM,8.6,-0.4,67,30.13,10.0,WNW,15.0,24.2,N/A,,Unknown,290,2013-01-22 16:15:00
11:35 AM,8.6,-0.4,67,30.13,7.0,West,16.1,26.5,N/A,,Unknown,280,2013-01-22 16:35:00
11:55 AM,8.6,-0.4,67,30.12,10.0,WNW,10.4,21.9,N/A,,Unknown,290,2013-01-22 16:55:00
12:15 PM,8.6,-0.4,67,30.12,7.0,WNW,16.1,25.3,N/A,,Unknown,290,2013-01-22 17:15:00
12:35 PM,8.6,-0.4,67,30.11,7.0,West,16.1,23.0,N/A,,Unknown,280,2013-01-22 17:35:00
12:55 PM,10.4,-0.4,62,30.10,10.0,WNW,12.7,20.7,N/A,,Unknown,300,2013-01-22 17:55:00
1:15 PM,10.4,1.4,67,30.09,5.0,WNW,11.5,23.0,N/A,,Unknown,290,2013-01-22 18:15:00
1:35 PM,10.4,-2.2,57,30.10,10.0,WNW,16.1,29.9,N/A,,Unknown,290,2013-01-22 18:35:00
1:55 PM,10.4,-0.4,62,30.10,10.0,WNW,15.0,24.2,N/A,,Unknown,300,2013-01-22 18:55:00
2:15 PM,10.4,-2.2,57,30.10,10.0,West,17.3,28.8,N/A,,Unknown,280,2013-01-22 19:15:00
2:35 PM,10.4,-0.4,62,30.10,10.0,West,15.0,26.5,N/A,,Unknown,280,2013-01-22 19:35:00
2:55 PM,8.6,-0.4,67,30.11,10.0,West,13.8,23.0,N/A,,Unknown,280,2013-01-22 19:55:00
3:15 PM,10.4,-0.4,62,30.11,10.0,WNW,17.3,24.2,N/A,,Unknown,290,2013-01-22 20:15:00
3:35 PM,10.4,-2.2,57,30.12,10.0,WNW,12.7,21.9,N/A,,Unknown,290,2013-01-22 20:35:00
3:55 PM,8.6,-2.2,62,30.12,10.0,West,13.8,21.9,N/A,,Unknown,280,2013-01-22 20:55:00
4:15 PM,8.6,-0.4,67,30.13,10.0,WNW,15.0,21.9,N/A,,Unknown,290,2013-01-22 21:15:00
4:35 PM,8.6,-2.2,62,30.14,10.0,WNW,11.5,18.4,N/A,,Unknown,300,2013-01-22 21:35:00
4:55 PM,8.6,-0.4,67,30.14,10.0,WNW,10.4,24.2,N/A,,Unknown,290,2013-01-22 21:55:00
5:15 PM,8.6,-0.4,67,30.15,10.0,WNW,9.2,17.3,N/A,,Unknown,290,2013-01-22 22:15:00
5:35 PM,6.8,1.4,79,30.16,10.0,WNW,11.5,17.3,N/A,,Unknown,300,2013-01-22 22:35:00
5:55 PM,8.6,-0.4,67,30.16,10.0,WNW,5.8,16.1,N/A,,Unknown,300,2013-01-22 22:55:00
6:15 PM,6.8,1.4,79,30.17,10.0,NW,6.9,-,N/A,,Unknown,310,2013-01-22 23:15:00
6:35 PM,6.8,1.4,79,30.17,10.0,WNW,5.8,-,N/A,,Unknown,300,2013-01-22 23:35:00
6:55 PM,6.8,1.4,79,30.17,10.0,WNW,5.8,-,N/A,,Unknown,300,2013-01-22 23:55:00
7:15 PM,6.8,3.2,85,30.17,10.0,WNW,4.6,-,N/A,,Unknown,290,2013-01-23 00:15:00
7:35 PM,6.8,3.2,85,30.18,3.0,West,6.9,-,N/A,,Unknown,280,2013-01-23 00:35:00
7:55 PM,6.8,3.2,85,30.18,2.5,NW,4.6,-,N/A,,Unknown,310,2013-01-23 00:55:00
8:15 PM,6.8,5.0,92,30.19,3.0,WNW,5.8,-,N/A,,Unknown,290,2013-01-23 01:15:00
8:35 PM,6.8,3.2,85,30.19,7.0,WNW,6.9,-,N/A,,Unknown,290,2013-01-23 01:35:00
8:55 PM,6.8,3.2,85,30.19,7.0,WNW,6.9,-,N/A,,Unknown,290,2013-01-23 01:55:00
9:15 PM,6.8,3.2,85,30.19,7.0,WNW,4.6,-,N/A,,Unknown,290,2013-01-23 02:15:00
9:35 PM,5.0,3.2,92,30.19,7.0,West,5.8,-,N/A,,Unknown,280,2013-01-23 02:35:00
9:55 PM,5.0,3.2,92,30.19,7.0,WNW,4.6,-,N/A,,Unknown,290,2013-01-23 02:55:00
10:15 PM,5.0,1.4,85,30.19,10.0,Calm,Calm,-,N/A,,Unknown,0,2013-01-23 03:15:00
10:35 PM,5.0,1.4,85,30.19,7.0,WNW,3.5,-,N/A,,Unknown,290,2013-01-23 03:35:00
10:55 PM,5.0,3.2,92,30.18,4.0,West,6.9,-,N/A,,Unknown,280,2013-01-23 03:55:00
11:15 PM,5.0,3.2,92,30.18,5.0,West,5.8,-,N/A,,Unknown,260,2013-01-23 04:15:00
11:35 PM,3.2,3.2,100,30.18,10.0,WSW,4.6,-,N/A,,Unknown,250,2013-01-23 04:35:00
11:55 PM,3.2,3.2,100,30.17,10.0,West,5.8,-,N/A,,Unknown,260,2013-01-23 04:55:00